Location: Elende
(51.4317°N, 10.6316°E)
Time: 03:52:43
(UTC+00:00)

Cosmos 1300 Rocket - Pass Details

Date: 18 September 2020
Orbit: 602 x 626 km, 82.5° (Epoch: 22 October)

Event Time Altitude Azimuth Distance (km) Brightness Sun altitude
Rises 18:17:28 0° 164° (SSE) 2,880 6.7 -9.0°
Reaches altitude 10° 18:19:48 10° 155° (SSE) 1,983 5.8 -9.4°
Maximum altitude 18:23:47 34° 91° (E) 1,025 4.2 -10.0°
Drops below altitude 10° 18:27:48 10° 26° (NNE) 2,010 6.1 -10.6°
Sets 18:30:12 0° 18° (NNE) 2,924 7.0 -11.0°
